Location: Cluj-Napoca
(46.7712°N, 23.6236°E)
Time: 16:19:37
(UTC+02:00)

First-Move - Pass Details

Date: 06 December 2021
Orbit: 574 x 665 km, 97.6° (Epoch: 24 January)

Event Time Altitude Azimuth Distance (km) Brightness Sun altitude
Rises 06:21:30 0° 358° (N) 3,006 ? -15.4°
Reaches altitude 10° 06:24:21 10° 340° (NNW) 2,095 ? -14.9°
Enters shadow 06:24:36 11° 337° (NNW) 2,029 ? -14.9°
